RH
66 74 66 70 75 85 93 86 87 86 89 96 89 90 81 80 74 72 62 56 60 68
68 73 73 81 86 95 91 89 97 87 89 90 92 94 75 73 65 56 58 65 71 64
66 70 82 88 94 91 87 96 75 72 86 97 84 71 71 62 62 68 73 74 70 65
68 78 85 85 79 75 80 74 82 91 77 75 74 75 74 75 80 80 76 74 70 67
82 85 85 85 86 88 87 85 81 81 82 82 85 87 83 83 77 73 74 76 76 70
84 85 83 86 85 92 84 86 90 85 86 89 90 89 82 78 76 76 76 75 79 79
86 81 84 90 89 84 83 83 88 89 92 94 92 88 87 83 80 77 79 77 73 74
80 84 88 87 87 89 79 85 88 93 92 94 95 87 82 78 75 71 63 60 61 61
84 86 82 79 80 84 89 95 93 93 96 94 85 78 72 58 51 44 44 47 45 46
78 79 80 83 88 90 91 96 98 93 81 63 58 49 36 30 32 36 39 46 49 53
75 78 83 87 91 97 98 92 83 72 49 39 29 25 26 30 34 37 41 48 52 55
80 87 88 90 96 96 86 72 48 33 24 22 21 22 25 30 35 40 44 47 49 52
93 98 98 90 79 62 46 28 19 18 19 19 20 25 29 33 39 44 46 50 52 56
93 91 79 63 46 28 18 17 17 18 20 22 25 28 32 36 42 49 50 51 55 61